Regional Weather Roundup
Issued by NWS

Home | Current Version | Previous Version | Text Only | Print | Product List | Glossary On
Versions: 1 2 3 4 5 6 7 8 9 10 11 12 13 14 15 16 17 18 19 20 21 22 23 24 25 26 27 28 29 30 31 32 33 34 35 36 37 38 39 40 41 42 43 44 45 46 47 48 49 50
000
ASUS44 KBMX 230510
RWRAL

ALABAMA REGIONAL WEATHER ROUNDUP
NATIONAL WEATHER SERVICE BIRMINGHAM AL
1200 AM CDT SAT MAY 23 2015

NOTE: "FAIR" INDICATES FEW OR NO CLOUDS BELOW 12,000 FEET
WITH NO SIGNIFICANT WEATHER AND/OR OBSTRUCTIONS TO VISIBILITY.

THE REMARK "TC" DENOTES TEMPERATURE IN DEGREES CELSIUS.

ALZ001>011-014-016>018-020-230600-
NORTH ALABAMA

CITY           SKY/WX    TMP DP  RH WIND       PRES   REMARKS
MUSCLE SHOALS  CLEAR     55  49  80 CALM      30.27S
HUNTSVILLE     CLEAR     60  49  66 E5        30.25F
DECATUR        CLEAR     55  51  86 CALM      30.26S
HALEYVILLE     FAIR      51  51 100 CALM      30.28S
GADSDEN        CLEAR    N/A N/A N/A CALM      30.24S
$$

ALZ012-013-022-023-030>036-040>044-230600-
WEST CENTRAL ALABAMA

CITY           SKY/WX    TMP DP  RH WIND       PRES   REMARKS
TUSCALOOSA     CLEAR     59  54  83 CALM      30.23F
$$

ALZ015-024>027-033>036-040>044-230600-
CENTRAL ALABAMA

CITY           SKY/WX    TMP DP  RH WIND       PRES   REMARKS
BIRMINGHAM     CLEAR     60  53  77 CALM      30.27S
MONTGOMERY     CLEAR     62  58  86 CALM      30.22S
SHELBY CO ARPT CLEAR     60  54  80 CALM      30.24S
MAXWELL AFB    CLEAR     63  58  84 N2        30.21S
GREENVILLE     FAIR      59  55  87 CALM      30.21F
$$

ALZ019-021-028-029-037-038-045>048-230600-
EAST CENTRAL ALABAMA

CITY           SKY/WX    TMP DP  RH WIND       PRES   REMARKS
ANNISTON       CLEAR     60  54  80 CALM      30.26S
ALEXANDER CITY CLEAR     62  55  77 CALM      30.24S
AUBURN         CLEAR     63  50  63 NE7       30.25R
$$

ALZ051>064-230600-
SOUTHWEST ALABAMA

CITY           SKY/WX    TMP DP  RH WIND       PRES   REMARKS
MOBILE         PTCLDY    70  58  65 NE7       30.20F
BROOKLEY FIELD CLEAR     73  59  61 N7        30.20F
EVERGREEN      CLEAR     61  59  93 CALM      30.22S
$$

ALZ049-050-065>069-230600-
SOUTHEAST ALABAMA

CITY           SKY/WX    TMP DP  RH WIND       PRES   REMARKS
DOTHAN         CLEAR     63  56  78 NE6       30.25R
OZARK          CLEAR     62  56  82 NE1       30.21S
TROY           CLEAR     59  56  89 CALM      30.23S
EUFAULA        FAIR      58  56  93 CALM      30.22R
$$


USA.gov is the U.S. government's official web portal to all federal, state and local government web resources and services.